Location: Unspecified
(0.0000°N, 0.0000°E)
Time: 13:21:37
(UTC+00:00)

HEATHSAT - Pass Details

Date: 12 June 2023
Orbit: 779 x 793 km, 98.8° (Epoch: 22 September)

Event Time Altitude Azimuth Distance (km) Brightness Sun altitude
Exits shadow 20:34:51 18° 358° (N) 1,846 9.8 -35.1°
Drops below altitude 10° 20:36:05 10° 355° (N) 2,320 10.4 -35.4°
Sets 20:38:24 0° 353° (N) 3,245 11.3 -35.9°
